Regional Weather Roundup
Issued by NWS

Home | Current Version | Previous Version | Graphics & Text | Print | Product List | Glossary On
Versions: 1 2 3 4 5 6 7 8 9 10 11 12 13 14 15 16 17 18 19 20 21 22 23 24 25 26 27 28 29 30 31 32 33 34 35 36 37 38 39 40 41 42 43 44 45 46 47 48 49 50
000
ASUS45 KBOI 060810
RWRID
WEATHER ROUNDUP FOR IDAHO
NATIONAL WEATHER SERVICE BOISE ID
100 AM MST FRI MAR 06 2015

NOTE: "FAIR" INDICATES FEW OR NO CLOUDS BELOW 12000 FEET
WITH NO SIGNIFICANT WEATHER AND/OR OBSTRUCTIONS TO VISIBILITY

IDZ012-014-060900-
SOUTHWEST IDAHO


CITY           SKY/WX    TMP DP  RH WIND       PRES   REMARKS
BOISE          CLEAR     36  20  52 SE6       30.37F WCI  31
CALDWELL       CLEAR     30  18  59 CALM      30.40S
MOUNTAIN HOME  CLEAR     28  17  62 N2        30.37S
$$

IDZ016-017-060900-
SOUTHCENTRAL IDAHO


CITY           SKY/WX    TMP DP  RH WIND       PRES   REMARKS
BURLEY         CLEAR     34  14  43 CALM      30.36R
JEROME         PTCLDY    35  18  49 S3        30.37S
TWIN FALLS     PTCLDY    38  18  44 S14       30.36F WCI  30
$$

IDZ019>023-060900-
SOUTHEAST IDAHO


CITY           SKY/WX    TMP DP  RH WIND       PRES   REMARKS
IDAHO FALLS    PTCLDY    30  19  63 SW6       30.37S WCI  24
POCATELLO      MOCLDY    39  18  42 S13       30.36S WCI  31
REXBURG        CLEAR     23  19  85 NE5       30.37S WCI  17
$$

IDZ006-010-011-018-031-032-060900-
CENTRAL IDAHO MOUNTAINS


CITY           SKY/WX    TMP DP  RH WIND       PRES   REMARKS
MCCALL         PTCLDY    24  18  77 CALM      30.37S
HAILEY         CLEAR     30  19  64 NW8       30.37S WCI  23
STANLEY          N/A     16   6  65 SE3       30.41R
SALMON         PTCLDY    25  18  74 CALM      30.37R
CHALLIS        CLEAR     31  11  43 CALM      30.35S
$$

IDZ002-004-006-007-026-060900-
NORTHERN IDAHO


CITY           SKY/WX    TMP DP  RH WIND       PRES   REMARKS
LEWISTON       CLEAR     36  26  67 S6        30.37R WCI  31
LOWELL           N/A     29  25  85 CALM      30.45R
COEUR D`ALENE  CLEAR     28  21  74 CALM      30.34S
MULLAN PASS    CLEAR     28  14  55 NW5       30.28S WCI  23
$$


USA.gov is the U.S. government's official web portal to all federal, state and local government web resources and services.